Precipitable_Water
1.26 1.51 1.62 1.67 1.70 1.68 1.65 1.63 1.63 1.57 1.48 1.60 1.64 1.67 1.69 1.70 1.74 1.65 1.59 1.45 1.36 1.29 1.24 1.30 1.30 1.29 1.24 1.22 1.21 1.16 1.09 1.07 1.08 1.04 1.04 0.99 0.95 0.95 0.90 0.88 0.92 0.93 0.96
1.38 1.52 1.63 1.65 1.67 1.65 1.62 1.64 1.63 1.61 1.54 1.64 1.68 1.75 1.77 1.79 1.75 1.62 1.48 1.36 1.24 1.24 1.21 1.22 1.21 1.18 1.13 1.10 1.07 1.02 1.01 1.03 1.03 0.99 0.96 0.96 0.97 0.93 0.98 0.94 0.92 0.93 0.93
1.46 1.55 1.62 1.64 1.62 1.62 1.57 1.62 1.62 1.65 1.65 1.69 1.73 1.78 1.88 1.91 1.84 1.72 1.56 1.35 1.31 1.25 1.17 1.13 1.13 1.10 1.06 1.03 1.01 1.00 1.01 1.02 0.96 0.93 0.92 0.87 0.94 0.95 0.92 0.90 0.90 0.92 0.93
1.50 1.58 1.61 1.65 1.62 1.57 1.51 1.59 1.62 1.68 1.67 1.67 1.73 1.85 1.94 1.85 1.74 1.63 1.55 1.49 1.41 1.24 1.18 1.13 1.11 1.06 1.03 1.02 1.03 1.01 1.03 0.99 0.93 0.91 0.86 0.95 0.93 0.95 0.92 0.94 0.95 0.94 0.92
1.50 1.57 1.58 1.63 1.61 1.53 1.54 1.56 1.60 1.66 1.66 1.68 1.75 1.91 1.90 1.76 1.63 1.55 1.51 1.42 1.37 1.28 1.20 1.15 1.12 1.10 1.07 1.09 1.06 1.01 0.99 0.95 0.92 0.93 0.92 0.91 0.95 0.93 0.95 0.92 0.92 0.91 0.87
1.46 1.55 1.56 1.63 1.63 1.55 1.55 1.55 1.58 1.61 1.65 1.69 1.79 1.85 1.74 1.69 1.65 1.56 1.54 1.44 1.38 1.29 1.22 1.20 1.28 1.20 1.13 1.09 1.05 1.02 0.98 0.94 0.93 0.93 0.95 0.93 0.93 0.97 0.93 0.93 0.88 0.91 0.89
1.44 1.52 1.54 1.64 1.62 1.57 1.52 1.54 1.57 1.60 1.67 1.74 1.78 1.75 1.71 1.68 1.61 1.55 1.47 1.43 1.39 1.35 1.21 1.20 1.18 1.13 1.11 1.08 1.02 0.97 0.93 0.92 0.91 0.95 0.91 0.94 0.93 0.97 0.92 0.91 0.90 0.88 0.86
1.41 1.50 1.53 1.65 1.61 1.56 1.54 1.54 1.57 1.62 1.70 1.79 1.78 1.73 1.67 1.61 1.56 1.53 1.45 1.39 1.39 1.29 1.17 1.16 1.13 1.13 1.11 1.07 1.02 0.96 0.93 0.93 0.95 0.92 0.94 0.94 0.96 0.94 0.94 0.92 0.89 0.86 0.85
1.46 1.50 1.54 1.63 1.61 1.56 1.53 1.53 1.56 1.61 1.73 1.77 1.75 1.69 1.61 1.61 1.54 1.44 1.41 1.40 1.40 1.27 1.16 1.16 1.12 1.11 1.06 1.02 0.97 0.93 0.90 0.92 0.91 0.92 0.93 0.93 0.95 0.94 0.91 0.90 0.88 0.86 0.83
1.42 1.48 1.51 1.55 1.56 1.55 1.54 1.57 1.60 1.67 1.70 1.75 1.74 1.64 1.60 1.58 1.55 1.50 1.41 1.37 1.35 1.19 1.10 1.12 1.09 1.06 1.04 0.99 0.94 0.88 0.89 0.91 0.91 0.91 0.93 0.95 0.94 0.92 0.90 0.88 0.86 0.84 0.81
1.36 1.44 1.49 1.50 1.53 1.56 1.57 1.61 1.66 1.67 1.67 1.66 1.63 1.57 1.50 1.48 1.49 1.45 1.41 1.35 1.28 1.17 1.12 1.11 1.07 1.06 0.99 0.95 0.92 0.86 0.86 0.87 0.86 0.92 0.94 0.93 0.92 0.89 0.87 0.84 0.81 0.80 0.77
1.26 1.36 1.46 1.50 1.52 1.55 1.57 1.59 1.60 1.62 1.60 1.57 1.52 1.44 1.47 1.46 1.47 1.45 1.40 1.34 1.28 1.19 1.12 1.07 1.03 1.00 0.95 0.93 0.89 0.87 0.85 0.88 0.91 0.90 0.91 0.91 0.90 0.88 0.83 0.79 0.77 0.77 0.75
1.28 1.37 1.43 1.49 1.54 1.54 1.55 1.56 1.58 1.56 1.54 1.49 1.46 1.44 1.40 1.38 1.37 1.36 1.33 1.37 1.28 1.17 1.02 0.99 0.97 0.95 0.95 0.93 0.90 0.86 0.85 0.86 0.88 0.87 0.89 0.87 0.86 0.85 0.82 0.80 0.78 0.77 0.77
1.26 1.35 1.43 1.50 1.53 1.54 1.58 1.56 1.58 1.55 1.49 1.46 1.44 1.37 1.23 1.12 1.17 1.16 1.22 1.29 1.24 1.11 0.95 0.96 0.93 0.94 0.95 0.93 0.91 0.87 0.84 0.83 0.82 0.82 0.86 0.85 0.84 0.82 0.79 0.78 0.76 0.75 0.76
1.20 1.32 1.40 1.47 1.50 1.54 1.55 1.58 1.58 1.51 1.46 1.39 1.33 1.29 1.18 1.05 1.00 1.05 1.14 1.20 1.20 1.10 0.99 0.90 0.90 0.90 0.87 0.86 0.85 0.81 0.78 0.77 0.76 0.77 0.80 0.82 0.84 0.81 0.79 0.77 0.77 0.76 0.75
1.20 1.29 1.41 1.47 1.55 1.57 1.55 1.54 1.48 1.44 1.37 1.33 1.27 1.19 1.12 0.98 0.84 0.83 0.98 1.07 1.13 1.11 1.01 0.88 0.83 0.81 0.82 0.82 0.79 0.80 0.77 0.75 0.74 0.75 0.77 0.80 0.81 0.81 0.79 0.78 0.77 0.76 0.73
1.17 1.30 1.38 1.48 1.59 1.59 1.53 1.49 1.43 1.37 1.34 1.27 1.22 1.16 1.06 0.89 0.77 0.78 0.80 0.89 0.98 1.02 0.94 0.83 0.79 0.79 0.79 0.79 0.76 0.77 0.76 0.75 0.72 0.71 0.72 0.73 0.76 0.75 0.74 0.72 0.73 0.72 0.73
1.22 1.25 1.38 1.47 1.49 1.54 1.53 1.48 1.44 1.42 1.39 1.28 1.21 1.13 1.01 0.89 0.84 0.89 0.88 0.85 0.90 0.94 0.86 0.75 0.74 0.72 0.72 0.72 0.70 0.71 0.72 0.73 0.71 0.71 0.71 0.71 0.70 0.69 0.67 0.63 0.63 0.64 0.66
1.26 1.28 1.31 1.39 1.40 1.44 1.43 1.47 1.49 1.47 1.43 1.26 1.18 1.11 1.01 0.95 0.91 0.94 0.96 0.95 0.96 0.94 0.83 0.75 0.73 0.71 0.65 0.66 0.67 0.69 0.70 0.69 0.69 0.69 0.67 0.67 0.68 0.66 0.64 0.62 0.58 0.55 0.54
1.29 1.32 1.32 1.36 1.40 1.42 1.44 1.48 1.48 1.45 1.40 1.27 1.16 1.11 1.03 0.96 0.94 0.94 0.95 0.94 0.93 0.89 0.80 0.76 0.71 0.71 0.68 0.66 0.64 0.63 0.64 0.63 0.63 0.62 0.62 0.64 0.63 0.63 0.63 0.61 0.59 0.55 0.50
1.26 1.27 1.27 1.33 1.37 1.38 1.40 1.37 1.33 1.29 1.30 1.18 1.16 1.12 1.03 0.95 0.87 0.84 0.83 0.84 0.85 0.79 0.76 0.75 0.72 0.67 0.63 0.64 0.56 0.53 0.54 0.54 0.52 0.52 0.54 0.56 0.56 0.58 0.59 0.59 0.59 0.58 0.55
1.22 1.26 1.29 1.37 1.40 1.41 1.41 1.36 1.32 1.26 1.20 1.18 1.17 1.14 1.07 0.98 0.89 0.80 0.77 0.74 0.79 0.78 0.76 0.74 0.68 0.61 0.60 0.62 0.49 0.47 0.35 0.39 0.46 0.48 0.49 0.48 0.49 0.52 0.53 0.55 0.57 0.57 0.57
1.17 1.23 1.29 1.35 1.43 1.45 1.46 1.41 1.39 1.36 1.24 1.15 1.14 1.11 1.06 1.00 0.94 0.84 0.78 0.75 0.72 0.73 0.71 0.69 0.66 0.60 0.52 0.57 0.57 0.45 0.34 0.30 0.39 0.48 0.49 0.52 0.53 0.54 0.54 0.55 0.57 0.58 0.58
1.15 1.26 1.28 1.37 1.45 1.50 1.50 1.41 1.35 1.28 1.09 1.05 1.09 1.09 1.04 1.01 0.95 0.87 0.81 0.75 0.71 0.67 0.66 0.66 0.67 0.62 0.59 0.51 0.57 0.57 0.55 0.50 0.37 0.32 0.45 0.50 0.55 0.56 0.59 0.60 0.59 0.59 0.61
1.12 1.18 1.24 1.37 1.44 1.53 1.53 1.49 1.37 1.33 1.22 1.12 1.13 1.09 1.04 1.00 0.96 0.89 0.84 0.79 0.70 0.65 0.64 0.64 0.63 0.61 0.61 0.57 0.54 0.52 0.52 0.52 0.51 0.43 0.34 0.39 0.48 0.52 0.56 0.58 0.60 0.61 0.62
1.09 1.18 1.24 1.31 1.40 1.52 1.48 1.49 1.39 1.33 1.20 1.08 1.09 1.04 1.01 0.99 0.96 0.93 0.89 0.84 0.80 0.73 0.68 0.67 0.67 0.65 0.63 0.62 0.61 0.57 0.51 0.47 0.46 0.46 0.43 0.43 0.43 0.49 0.57 0.61 0.62 0.62 0.64
Wind_Speed
16 15 15 15 14 13 12 11 10 10 10 9 9 10 11 12 12 12 12 11 12 12 13 15 15 16 16 16 16 16 15 15 15 15 14 14 13 13 12 12 11 10 10
17 16 16 15 15 14 12 11 10 10 9 9 10 11 11 12 12 12 11 11 11 12 13 13 14 14 14 14 14 15 15 14 14 13 13 12 12 11 11 10 10 9 9
17 17 17 16 15 14 13 11 10 10 10 9 10 10 12 12 11 11 10 11 12 12 12 13 13 13 13 14 14 13 13 12 12 11 11 10 10 10 9 9 9 8 8
18 18 18 17 16 15 14 12 11 11 10 10 10 11 12 11 10 10 10 11 11 11 12 13 12 12 13 12 12 11 11 10 10 9 9 9 9 8 8 8 8 7 7
18 18 18 18 17 16 14 13 12 11 10 10 11 12 11 9 9 9 9 11 11 12 12 12 12 12 12 11 10 10 10 9 9 9 9 8 8 7 7 7 7 6 6
19 19 20 19 18 17 15 14 13 12 11 11 12 12 10 8 7 6 10 11 11 11 11 11 11 11 11 11 10 9 9 9 9 8 8 7 7 7 7 6 6 6 6
20 20 20 20 19 18 16 15 14 13 12 12 12 11 9 7 6 8 11 11 11 10 11 11 11 11 10 9 8 8 8 8 8 8 7 7 7 6 6 6 6 5 5
20 20 21 21 20 19 17 16 15 14 13 13 12 9 8 7 7 10 10 11 11 11 11 11 11 10 9 9 8 8 7 7 7 6 6 6 6 5 5 5 5 5 4
21 21 21 21 21 20 18 17 15 14 14 13 11 9 8 9 9 9 11 11 11 11 11 11 11 10 9 8 8 7 6 6 5 5 5 5 5 5 5 5 5 4 4
22 22 22 22 21 20 19 17 16 15 14 12 11 9 9 9 9 10 11 12 12 11 11 12 11 9 8 8 7 6 6 5 4 4 4 4 4 4 4 5 4 4 4
23 23 22 22 21 21 19 18 17 15 14 13 11 10 9 9 9 11 12 11 11 11 12 12 11 10 8 7 6 6 5 4 3 2 3 3 3 4 5 5 5 4 4
24 24 23 22 22 21 21 19 17 16 14 13 12 11 10 9 11 12 12 12 12 12 13 12 11 10 8 7 6 5 4 3 2 1 1 2 3 4 4 5 5 4 4
25 24 24 23 22 22 21 20 18 17 15 14 13 11 10 10 11 11 12 13 13 13 13 12 11 10 9 7 6 5 4 3 2 1 1 1 2 4 4 5 5 5 5
26 25 24 24 23 22 21 20 19 18 16 15 14 13 12 11 11 11 12 14 15 14 13 11 11 11 9 8 6 5 5 4 4 2 2 2 3 4 4 5 6 6 6
26 25 25 24 24 23 22 21 20 19 18 16 15 14 13 12 12 12 13 15 16 14 13 12 11 11 10 8 7 6 5 5 5 4 4 4 4 4 5 6 6 6 6
25 25 25 24 24 23 22 21 20 19 18 16 15 14 14 13 13 14 14 15 16 15 14 13 12 11 10 9 8 7 6 6 6 6 6 5 5 5 6 6 7 7 8
25 25 25 25 24 23 23 21 21 20 19 17 16 15 15 14 14 15 15 15 15 15 15 14 13 11 10 10 9 8 7 7 8 8 8 8 8 8 8 8 9 9 10
24 25 25 24 24 24 22 21 21 20 19 18 17 16 15 15 15 15 15 16 16 15 15 15 13 12 11 11 10 9 9 9 9 10 10 10 11 11 11 11 11 12 12
25 25 24 25 25 24 23 22 21 21 19 18 18 17 16 16 16 15 15 16 16 16 15 15 14 13 12 11 11 11 11 11 12 12 12 13 13 13 14 14 14 14 15
25 24 25 25 25 24 23 23 22 21 20 20 19 18 17 16 16 16 16 16 17 16 16 15 15 14 13 13 13 13 13 13 14 14 15 15 15 16 16 17 17 17 17
26 25 25 25 26 25 24 24 23 22 21 21 20 19 18 17 17 17 17 17 17 17 17 16 16 15 15 14 14 14 14 15 15 16 16 17 18 18 19 19 20 20 20
27 26 26 26 26 26 26 25 23 22 22 22 21 20 19 18 18 18 18 18 18 18 18 18 17 16 16 15 14 14 14 14 17 18 18 19 19 20 21 21 22 22 22
27 27 27 27 27 27 27 26 24 23 22 22 22 21 20 20 19 19 19 19 19 20 19 19 19 18 17 17 16 15 13 14 15 15 18 19 21 21 22 23 23 23 22
27 27 28 28 27 28 28 27 26 25 23 24 24 22 21 21 20 20 20 20 20 21 20 20 20 19 18 18 18 18 17 17 16 17 17 19 20 21 22 22 23 23 22
27 27 28 29 29 29 28 28 28 27 27 25 24 23 22 22 22 21 21 21 20 21 21 21 21 21 20 20 19 18 19 20 20 20 21 21 21 21 21 22 22 22 23
28 28 28 29 30 30 27 28 28 27 29 26 26 25 24 23 22 22 23 23 22 22 22 22 22 22 22 21 21 21 21 20 21 22 22 23 22 22 21 21 22 23 24
Wind_Direction
182 176 173 169 165 160 154 147 141 131 128 121 118 119 119 118 116 114 111 110 108 107 110 110 110 109 108 107 105 104 103 102 101 100 98 95 93 93 92 90 89 87 84
178 178 175 172 169 164 160 153 148 141 137 128 124 125 124 123 118 115 113 113 112 113 116 117 115 113 112 109 107 107 105 103 101 99 97 95 94 93 93 91 88 85 81
181 180 178 176 173 169 164 159 154 149 144 135 133 131 129 126 123 117 116 116 116 118 118 122 120 118 116 113 110 109 106 103 102 99 98 94 93 90 88 86 83 79 76
182 181 181 179 176 172 169 164 159 154 150 144 139 137 133 127 125 125 121 123 121 123 124 125 123 121 120 118 114 112 108 105 102 99 97 92 88 86 83 79 77 73 72
187 184 182 181 178 175 173 168 164 159 155 151 147 144 137 134 131 133 135 132 126 127 130 131 127 125 123 122 117 113 109 107 102 98 94 88 86 81 77 74 71 69 68
190 188 185 183 181 179 176 172 167 164 160 155 151 149 143 137 140 149 153 147 142 138 138 137 140 135 130 127 121 113 110 107 105 96 90 85 82 78 73 68 65 64 63
190 189 188 186 184 182 179 175 171 167 164 160 158 158 157 149 144 145 149 150 146 146 145 144 139 138 134 130 127 121 115 111 103 96 88 82 75 71 65 60 56 55 53
190 189 188 187 185 184 182 178 175 172 169 166 165 167 170 166 148 150 153 155 152 149 148 148 145 142 139 134 128 126 120 118 107 96 88 78 68 59 53 48 44 42 41
190 189 187 187 186 184 184 181 179 178 174 175 179 178 176 172 167 159 161 161 158 156 156 156 152 147 143 140 137 129 124 124 110 97 78 65 59 45 39 34 28 24 22
190 189 187 187 187 186 185 183 180 179 179 181 181 180 178 178 177 171 166 163 162 163 162 160 159 157 152 148 147 141 135 125 110 92 71 56 44 33 25 21 15 9 5
189 189 188 187 187 187 185 184 182 183 184 184 184 186 184 185 180 179 174 173 173 173 169 167 165 163 160 158 159 156 147 138 118 87 63 46 34 22 12 7 3 359 354
191 191 191 189 189 189 188 188 188 188 190 191 190 186 188 187 184 182 185 184 179 177 175 175 173 172 170 167 165 166 167 164 147 93 45 24 15 10 7 4 359 358 357
192 192 192 192 191 191 191 192 194 194 192 189 190 191 192 188 187 189 190 188 182 179 177 180 184 184 182 179 177 180 191 191 196 237 318 339 348 355 356 355 353 350 347
192 193 193 194 194 194 194 195 196 195 195 198 199 197 197 197 197 197 193 188 186 184 184 188 189 188 188 188 193 202 208 214 227 246 260 299 326 334 340 343 341 336 338
193 194 195 196 196 196 196 197 198 200 201 201 201 203 202 202 201 198 193 191 190 191 193 192 191 192 196 201 210 215 220 223 231 244 267 284 299 312 321 330 333 331 326
193 195 196 197 198 197 198 199 201 201 201 203 204 204 204 203 201 198 194 192 195 196 197 197 199 202 207 209 215 221 228 232 240 252 264 276 287 295 304 313 317 317 317
194 195 196 198 199 199 200 201 201 202 205 207 207 206 205 203 199 199 199 198 197 201 201 201 203 205 211 216 222 231 237 243 250 255 263 271 277 285 292 298 302 302 307
194 196 198 200 200 200 200 203 203 204 205 206 205 204 203 201 200 200 202 202 201 201 202 202 206 213 219 225 232 239 246 253 257 261 265 270 274 278 284 289 294 294 297
197 197 199 200 201 202 204 204 205 205 207 206 204 204 204 203 203 203 201 202 202 203 205 208 213 219 225 233 238 246 253 257 261 265 267 270 273 276 279 283 287 290 292
201 201 201 202 203 205 206 207 207 208 210 208 208 208 209 209 209 208 208 208 208 209 213 216 221 226 233 238 245 253 259 262 265 267 269 272 274 276 277 280 283 286 288
204 205 205 206 207 206 205 204 205 208 209 210 211 212 213 213 213 213 212 212 213 216 219 222 228 233 239 243 249 257 262 264 267 269 270 273 275 276 277 279 282 283 285
207 208 209 209 207 207 208 208 210 212 213 214 216 216 217 218 217 217 218 219 220 223 225 229 233 237 242 243 251 259 267 271 270 270 272 275 277 278 278 279 281 282 283
210 211 212 210 210 210 209 211 215 215 216 216 217 219 220 220 220 221 222 224 227 229 231 233 235 238 244 246 251 256 265 268 278 279 277 276 278 280 280 280 280 281 280
213 214 215 214 213 212 213 215 215 216 217 218 219 221 222 223 224 225 227 229 231 232 234 236 238 241 246 248 252 255 262 269 277 283 284 284 283 281 281 280 280 279 277
215 216 216 216 216 216 220 214 219 224 222 221 221 221 223 226 228 230 231 233 235 235 236 237 240 244 247 250 252 258 263 269 274 278 284 285 285 284 283 281 279 278 277
217 218 218 218 218 217 220 219 224 228 219 222 221 223 226 229 232 233 235 236 238 238 239 241 244 247 248 251 255 260 264 271 275 278 280 283 283 284 283 282 281 280 279